Weather reports worldwide

Advertisment
Aeroport de Lannion, France (7118): temperature & dewpoint: 01.08.2020 03:00:00 - 07.08.2020 03:00:00 (CEST)Aeroport de Lannion, France (7118): wind speed & gusts: 01.08.2020 03:00:00 - 07.08.2020 03:00:00 (CEST)Aeroport de Lannion, France (7118): wind direction: 01.08.2020 03:00:00 - 07.08.2020 03:00:00 (CEST)Aeroport de Lannion, France (7118): reduced air pressure: 01.08.2020 03:00:00 - 07.08.2020 03:00:00 (CEST)Aeroport de Lannion, France (7118): visibility: 01.08.2020 03:00:00 - 07.08.2020 03:00:00 (CEST)Aeroport de Lannion, France (7118): precipitation: 01.08.2020 03:00:00 - 07.08.2020 03:00:00 (CEST)
Date & Time tt [°C] td [°C] ff [km/h] ff [kn] fx [km/h] fx [kn] dd ppp [hPa] vv [km] rr [mm]
07.08.2020 03:00:00 - - - - - - - - - -
07.08.2020 02:00:00 16,1 15,0 3 1 8 5 E 1017,9 25 0,0
07.08.2020 01:00:00 16,9 15,9 4 2 8 4 ENE 1018,4 19 0,0
07.08.2020 00:00:00 17,4 16,4 2 1 11 6 NE 1018,4 12 0,0
06.08.2020 23:00:00 17,9 16,8 6 4 10 6 N 1018,3 15 0,0
06.08.2020 22:00:00 18,6 16,4 5 3 16 9 N 1018,0 17 0,0
06.08.2020 21:00:00 20,4 15,4 11 6 18 10 N 1017,7 42 0,0
06.08.2020 20:00:00 21,9 15,0 13 7 22 12 N 1017,4 40 0,0
06.08.2020 19:00:00 23,3 14,8 15 8 24 13 N 1017,3 43 0,0
06.08.2020 18:00:00 24,1 15,6 17 9 24 13 N 1017,2 20 0,0
06.08.2020 17:00:00 24,5 15,7 17 9 26 14 N 1017,2 29 0,0
06.08.2020 16:00:00 24,8 16,0 15 8 23 12 N 1017,2 19 0,0
06.08.2020 15:00:00 24,6 16,6 14 7 23 12 N 1017,2 20 0,0
06.08.2020 14:00:00 24,6 16,8 15 8 22 12 N 1017,1 36 0,0
06.08.2020 13:00:00 25,9 15,9 8 4 17 9 SSW 1017,2 38 0,0
06.08.2020 12:00:00 24,1 15,8 7 4 18 10 SSE 1017,1 35 0,0
06.08.2020 11:00:00 23,1 17,3 8 4 15 8 S 1017,2 32 0,0
06.08.2020 10:00:00 21,3 17,9 10 5 16 9 SSE 1017,1 33 0,0
06.08.2020 09:00:00 19,0 17,1 7 4 16 9 SSE 1017,2 31 0,0
06.08.2020 08:00:00 17,2 16,4 10 5 14 8 SSE 1016,7 24 0,0
06.08.2020 07:00:00 16,4 15,8 11 6 14 8 SE 1016,4 28 0,0
06.08.2020 06:00:00 16,4 15,6 8 4 17 9 SSE 1016,2 21 0,0
06.08.2020 05:00:00 16,7 15,9 10 6 16 9 SSE 1016,2 21 0,0
06.08.2020 04:00:00 17,0 16,0 10 5 14 8 SSE 1016,3 26 0,0
06.08.2020 03:00:00 17,3 16,0 11 6 19 11 SE 1016,4 28 0,0
06.08.2020 02:00:00 17,7 16,0 12 7 21 11 S 1016,3 33 0,0
06.08.2020 01:00:00 17,9 15,5 8 5 15 8 S 1016,2 40 0,0
06.08.2020 00:00:00 18,8 15,3 8 4 15 8 S 1016,1 43 0,0
05.08.2020 23:00:00 19,2 15,1 6 4 17 9 S 1015,9 45 0,0
05.08.2020 22:00:00 20,7 15,0 14 8 24 13 SSW 1015,4 50 0,0
05.08.2020 21:00:00 21,4 15,0 14 7 30 16 SW 1014,9 46 0,0
05.08.2020 20:00:00 23,5 14,8 18 10 37 20 SW 1014,6 36 0,0
05.08.2020 19:00:00 24,5 14,9 20 11 42 23 SW 1014,4 44 0,0
05.08.2020 18:00:00 24,6 15,0 25 13 44 24 SSW 1014,2 22 0,0
05.08.2020 17:00:00 24,4 15,3 25 13 44 24 SSW 1014,2 26 0,0
05.08.2020 16:00:00 25,2 15,8 20 11 45 24 S 1014,2 18 0,0
05.08.2020 15:00:00 26,0 14,8 27 15 43 23 SSW 1014,1 17 0,0
05.08.2020 14:00:00 24,5 15,4 27 15 44 24 S 1014,2 19 0,0
05.08.2020 13:00:00 23,7 14,7 24 13 39 21 S 1014,2 20 0,0
05.08.2020 12:00:00 22,5 14,3 22 12 39 21 SSW 1014,3 22 0,0
05.08.2020 11:00:00 20,8 14,7 19 10 38 21 SSW 1014,3 24 0,0
05.08.2020 10:00:00 19,3 14,8 19 10 36 19 SSW 1014,6 20 0,0
05.08.2020 09:00:00 16,9 14,2 14 8 27 15 S 1014,9 27 0,0
05.08.2020 08:00:00 14,0 12,9 9 5 14 8 SSE 1014,9 27 0,0
05.08.2020 07:00:00 13,0 12,1 9 5 15 8 S 1015,2 22 0,0
05.08.2020 06:00:00 12,5 11,6 8 4 14 8 S 1015,1 21 0,0
05.08.2020 05:00:00 13,2 12,1 9 5 16 9 S 1015,2 26 0,0
05.08.2020 04:00:00 12,8 11,5 8 5 12 6 S 1015,9 35 0,0
05.08.2020 03:00:00 13,1 11,3 6 4 12 7 S 1016,3 37 0,0
05.08.2020 02:00:00 13,8 11,5 9 5 16 8 S 1016,7 32 0,0
05.08.2020 01:00:00 14,5 11,8 9 5 16 9 S 1017,0 37 0,0
05.08.2020 00:00:00 14,4 12,3 6 4 9 5 S 1017,2 29 0,0
04.08.2020 23:00:00 15,2 12,7 6 3 10 5 SSE 1017,5 31 0,0
04.08.2020 22:00:00 15,6 12,0 7 4 9 5 ESE 1017,4 19 0,0
04.08.2020 21:00:00 18,0 12,9 3 2 13 7 W 1017,7 35 0,0
04.08.2020 20:00:00 18,5 12,9 9 5 19 11 WNW 1017,8 39 0,0
04.08.2020 19:00:00 19,0 13,2 12 6 24 13 NW 1017,9 33 0,0
04.08.2020 18:00:00 19,6 12,1 15 8 23 12 NW 1018,3 26 0,0
04.08.2020 17:00:00 21,7 12,5 16 9 25 14 W 1018,3 24 0,0
04.08.2020 16:00:00 21,1 12,0 17 9 28 15 WNW 1018,8 26 0,0
04.08.2020 15:00:00 22,0 11,7 15 8 23 12 W 1019,1 20 0,0
04.08.2020 14:00:00 20,5 11,4 11 6 25 14 SW 1019,4 31 0,0
04.08.2020 13:00:00 20,3 11,8 11 6 24 13 S 1019,8 32 0,0
04.08.2020 12:00:00 18,6 11,4 11 6 20 11 SSW 1020,0 45 0,0
04.08.2020 11:00:00 17,3 12,4 7 4 16 9 SSW 1020,1 51 0,0
04.08.2020 10:00:00 16,1 13,2 8 4 13 7 SSW 1020,4 40 0,0
04.08.2020 09:00:00 13,5 12,7 3 2 8 5 S 1020,2 28 0,0
04.08.2020 08:00:00 11,0 10,5 6 3 8 4 SE 1020,0 13 0,0
04.08.2020 07:00:00 9,4 8,9 4 2 6 3 SSE 1020,0 17 0,0
04.08.2020 06:00:00 10,1 9,5 4 2 7 4 S 1020,2 18 0,0
04.08.2020 05:00:00 10,2 9,6 3 2 5 3 S 1020,3 18 0,0
04.08.2020 04:00:00 11,5 10,9 4 2 6 4 SW 1020,2 2,9 0,0
04.08.2020 03:00:00 11,7 11,1 3 2 8 4 SW 1020,5 13 0,0
04.08.2020 02:00:00 11,4 10,5 5 3 7 4 SW 1020,9 19 0,0
04.08.2020 01:00:00 12,3 11,2 4 2 7 4 SSW 1020,9 28 0,0
04.08.2020 00:00:00 12,9 11,5 5 3 6 4 WSW 1020,9 20 0,0
03.08.2020 23:00:00 13,5 11,7 5 3 8 4 WSW 1020,8 29 0,0
03.08.2020 22:00:00 14,5 11,3 4 2 18 10 W 1020,3 33 0,0
03.08.2020 21:00:00 16,3 11,7 12 7 24 13 WNW 1020,2 38 0,0
03.08.2020 20:00:00 17,0 11,5 14 8 24 13 WNW 1019,9 42 0,0
03.08.2020 19:00:00 18,1 11,6 15 8 29 16 WNW 1020,0 26 0,0
03.08.2020 18:00:00 18,0 11,3 15 8 28 15 WNW 1019,9 60 0,0
03.08.2020 17:00:00 19,0 11,1 19 11 30 16 W 1019,7 20 0,0
03.08.2020 16:00:00 19,5 11,8 19 10 31 17 WNW 1019,8 33 0,0
03.08.2020 15:00:00 18,8 11,6 18 10 32 17 WNW 1020,0 48 0,0
03.08.2020 14:00:00 19,0 11,8 18 10 27 15 WNW 1020,4 37 0,0
03.08.2020 13:00:00 19,0 11,1 14 8 25 13 WNW 1020,3 37 0,0
03.08.2020 12:00:00 18,3 12,1 11 6 20 11 WNW 1020,1 20 0,0
03.08.2020 11:00:00 16,1 11,3 14 8 22 12 WNW 1020,0 45 0,0
03.08.2020 10:00:00 16,8 12,1 12 6 21 11 NNW 1019,8 33 0,0
03.08.2020 09:00:00 15,4 13,1 8 5 15 8 NW 1019,6 38 0,0
03.08.2020 08:00:00 11,2 10,3 5 3 7 4 W 1019,2 31 0,0
03.08.2020 07:00:00 11,4 10,3 5 3 10 5 W 1019,1 30 0,0
03.08.2020 06:00:00 13,4 11,8 5 3 14 7 NW 1018,8 34 0,0
03.08.2020 05:00:00 14,0 13,2 6 3 10 6 WNW 1018,9 26 0,0
03.08.2020 04:00:00 13,8 12,9 7 4 11 6 W 1019,1 27 0,0
03.08.2020 03:00:00 14,7 13,6 5 3 10 6 WNW 1019,4 25 0,0
03.08.2020 02:00:00 14,2 13,1 7 4 11 6 W 1019,7 31 0,0
03.08.2020 01:00:00 13,8 12,7 6 3 9 5 W 1019,8 41 0,0
03.08.2020 00:00:00 14,6 13,3 8 4 11 6 WSW 1020,1 41 0,0
02.08.2020 23:00:00 15,1 13,6 6 4 14 8 WSW 1020,1 33 0,0
02.08.2020 22:00:00 15,4 13,6 10 6 20 11 W 1020,1 34 0,0
02.08.2020 21:00:00 15,9 13,6 12 6 23 12 W 1020,2 37 0,0
02.08.2020 20:00:00 16,8 13,3 17 9 33 18 W 1020,1 40 0,0
02.08.2020 19:00:00 16,4 14,2 16 9 34 18 W 1020,3 26 0,0
02.08.2020 18:00:00 17,3 13,8 21 11 32 18 W 1020,4 20 0,0
02.08.2020 17:00:00 18,4 13,5 22 12 31 17 W 1020,6 36 0,0
02.08.2020 16:00:00 18,5 13,8 22 12 35 19 W 1020,9 24 0,0
02.08.2020 15:00:00 20,0 13,7 23 13 32 17 W 1020,9 22 0,0
02.08.2020 14:00:00 19,3 13,2 20 11 31 17 WSW 1021,2 23 0,0
02.08.2020 13:00:00 19,1 13,3 19 10 30 16 WSW 1021,3 23 0,0
02.08.2020 12:00:00 19,0 13,2 19 10 31 17 WSW 1021,6 21 0,0
02.08.2020 11:00:00 18,4 13,0 18 10 26 14 W 1021,8 22 0,0
02.08.2020 10:00:00 17,7 13,0 16 9 25 13 WSW 1021,8 23 0,0
02.08.2020 09:00:00 15,9 13,2 18 10 23 13 WSW 1021,7 41 0,0
02.08.2020 08:00:00 15,1 13,1 8 4 14 8 SSW 1021,3 33 0,0
02.08.2020 07:00:00 15,0 13,2 9 5 14 8 WSW 1021,1 34 0,0
02.08.2020 06:00:00 15,1 13,0 8 5 18 10 WSW 1021,0 35 0,0
02.08.2020 05:00:00 15,3 12,2 12 6 21 12 WSW 1021,1 41 0,0
02.08.2020 04:00:00 15,3 13,3 15 8 24 13 W 1021,3 34 0,0
02.08.2020 03:00:00 15,5 13,5 11 6 24 13 WSW 1021,4 32 0,0
02.08.2020 02:00:00 15,3 13,3 12 6 20 11 WSW 1021,7 32 0,0
02.08.2020 01:00:00 15,3 13,3 11 6 22 12 W 1021,9 31 0,0
02.08.2020 00:00:00 15,6 13,4 12 7 18 10 W 1022,0 30 0,0
01.08.2020 23:00:00 15,3 13,3 12 6 18 10 W 1022,0 31 0,0
01.08.2020 22:00:00 15,1 13,1 13 7 21 11 W 1021,9 29 0,0
01.08.2020 21:00:00 16,6 13,5 13 7 23 12 W 1021,3 31 0,0
01.08.2020 20:00:00 16,4 12,6 18 10 27 15 W 1021,4 30 0,0
01.08.2020 19:00:00 17,2 13,7 16 9 32 17 W 1021,1 36 0,0
01.08.2020 18:00:00 18,3 12,7 21 11 32 17 WNW 1021,3 24 0,0
01.08.2020 17:00:00 19,1 13,7 21 12 34 18 W 1021,1 25 0,0
01.08.2020 16:00:00 19,9 14,3 23 12 36 19 W 1020,6 20 0,0
01.08.2020 15:00:00 19,3 15,4 21 11 31 17 WNW 1020,5 33 0,2
01.08.2020 14:00:00 18,8 15,5 18 10 27 14 WNW 1020,1 28 0,0
01.08.2020 13:00:00 18,7 15,8 21 11 29 16 WNW 1019,7 20 0,0
01.08.2020 12:00:00 20,3 16,5 18 10 29 15 W 1019,5 22 0,0
01.08.2020 11:00:00 18,6 15,8 20 11 29 16 WSW 1019,0 19 0,0
01.08.2020 10:00:00 17,7 16,2 15 8 24 13 SW 1018,8 27 0,0
01.08.2020 09:00:00 17,1 16,0 10 5 16 9 SSW 1018,6 19 0,0
01.08.2020 08:00:00 15,5 14,9 8 5 14 8 S 1018,5 17 0,0
01.08.2020 07:00:00 14,9 14,3 7 4 13 7 S 1018,3 16 0,0
01.08.2020 06:00:00 15,2 14,4 8 5 19 11 S 1018,2 18 0,0
01.08.2020 05:00:00 15,9 15,3 10 6 18 10 SW 1018,3 14 0,0
01.08.2020 04:00:00 15,8 15,3 13 7 21 12 SW 1018,1 11 0,0
01.08.2020 03:00:00 15,3 14,8 9 5 12 7 SSW 1018,0 11 0,0

tt = temperature
td = dewpoint
ff = wind speed
fx = gusts
dd = wind direction
ppp = reduced air pressure
vv = visibility
rr = precipitation

Next stations